GW4740 Weather Reports


Display with metric or nautical units.
time (UTC)temp
F
wind
direction
speed
MPH
gust
MPH
rain 1hr
in
rain 24hr
in
rain mn
in
humidity
%
barometer
mb
20260507140020 43 354 1.0 4.0 0.00 0.00 0.00 81 1023.3
20260507134524 42 345 0.0 3.0 0.00 0.00 0.00 83 1023.4
20260507133025 41 20 1.0 3.0 0.00 0.00 0.00 84 1023.4
20260507131534 40 325 0.0 3.0 0.00 0.00 0.00 84 1023.4
20260507130027 39 315 1.0 4.0 0.00 0.00 0.00 84 1023.4
20260507124522 38 339 2.0 3.0 0.00 0.00 0.00 84 1023.3
20260507123005 38 1 1.0 3.0 0.00 0.00 0.00 83 1023.1
20260507121506 38 311 1.0 5.0 0.00 0.00 0.00 82 1023.1
20260507120034 39 343 2.0 5.0 0.00 0.00 0.00 82 1023.0
20260507114514 39 351 2.0 5.0 0.00 0.00 0.00 82 1023.0
20260507113034 39 337 3.0 5.0 0.00 0.00 0.00 82 1023.1
20260507111507 40 338 3.0 5.0 0.00 0.00 0.00 81 1023.0
20260507101514 41 335 2.0 5.0 0.00 0.00 0.00 79 1022.7
20260507100010 41 347 2.0 5.0 0.00 0.00 0.00 78 1022.7
20260507094516 42 331 3.0 5.0 0.00 0.00 0.00 77 1022.5
20260507080021 45 316 2.0 5.0 0.00 0.00 0.00 70 1022.4
20260507074529 46 321 4.0 9.0 0.00 0.00 0.00 70 1022.4
20260507073015 47 326 5.0 10.0 0.00 0.00 0.00 68 1022.5
20260507071518 47 310 5.0 9.0 0.00 0.00 0.00 64 1022.4
20260507070022 48 309 5.0 10.0 0.00 0.00 0.00 63 1022.3
20260507064524 48 318 4.0 9.0 0.00 0.00 0.00 62 1022.1
20260507063013 48 323 3.0 7.0 0.00 0.00 0.00 63 1021.8
20260507061518 48 113 3.0 6.0 0.00 0.00 0.00 63 1021.1
20260507060022 47 45 3.0 9.0 0.00 0.00 0.00 63 1021.2
20260507054505 47 62 3.0 13.0 0.00 0.00 0.00 65 1021.1
20260507053011 46 40 8.0 19.0 0.00 0.00 0.00 66 1021.3
20260507051516 46 35 11.0 20.0 0.00 0.00 0.00 66 1021.4
20260507050020 46 25 9.0 17.0 0.00 0.00 0.00 66 1021.5
20260507044508 46 30 10.0 16.0 0.00 0.00 0.00 65 1021.5
20260507043009 46 52 7.0 15.0 0.00 0.00 0.00 66 1021.6
20260507041515 46 22 6.0 18.0 0.00 0.00 0.00 66 1021.1
20260507040017 46 37 11.0 19.0 0.00 0.00 0.00 65 1020.8
20260507034504 47 288 8.0 26.0 0.00 0.00 0.00 64 1020.9
20260507033006 47 11 17.0 30.0 0.00 0.00 0.00 64 1018.9
20260507031510 46 23 18.0 29.0 0.00 0.00 0.00 64 1018.7
20260507030014 47 32 23.0 32.0 0.00 0.00 0.00 64 1018.1
20260507024522 47 30 14.0 28.0 0.00 0.00 0.00 64 1018.1
20260507023005 48 18 16.0 27.0 0.00 0.00 0.00 64 1017.8
20260507021506 49 3 13.0 30.0 0.00 0.00 0.00 64 1017.3
20260507020012 51 11 23.0 34.0 0.00 0.00 0.00 61 1015.8
20260507014520 54 1 18.0 31.0 0.00 0.00 0.00 57 1015.8
20260507013022 60 1 23.0 34.0 0.00 0.00 0.00 45 1015.4
20260507011508 66 43 24.0 33.0 0.00 0.00 0.00 35 1014.0
20260507004514 74 309 5.0 10.0 0.00 0.00 0.00 17 1012.1
20260507003019 74 264 3.0 8.0 0.00 0.00 0.00 18 1011.9
20260506233019 75 239 8.0 12.0 0.00 0.00 0.00 17 1011.6
20260506231522 75 283 3.0 12.0 0.00 0.00 0.00 17 1011.6
20260506230028 75 233 3.0 12.0 0.00 0.00 0.00 18 1011.6
20260506224522 76 284 5.0 10.0 0.00 0.00 0.00 17 1011.5
20260506223016 73 276 4.0 12.0 0.00 0.00 0.00 18 1011.5
20260506221520 75 265 7.0 12.0 0.00 0.00 0.00 18 1011.6
20260506220033 75 288 8.0 16.0 0.00 0.00 0.00 18 1011.9
20260506214529 75 228 3.0 13.0 0.00 0.00 0.00 18 1011.9
20260506213014 75 307 7.0 12.0 0.00 0.00 0.00 17 1011.9
20260506211522 75 302 7.0 18.0 0.00 0.00 0.00 17 1012.2
20260506210022 75 228 9.0 17.0 0.00 0.00 0.00 17 1012.4
20260506204526 76 232 7.0 19.0 0.00 0.00 0.00 16 1012.7
20260506203014 75 293 5.0 18.0 0.00 0.00 0.00 17 1012.8
20260506201519 74 255 8.0 19.0 0.00 0.00 0.00 17 1013.0
20260506200004 74 237 8.0 17.0 0.00 0.00 0.00 17 1013.0
20260506194508 73 291 10.0 15.0 0.00 0.00 0.00 18 1013.0
20260506193012 73 236 10.0 19.0 0.00 0.00 0.00 17 1013.3
20260506191516 73 257 7.0 15.0 0.00 0.00 0.00 18 1013.6
20260506190005 72 248 9.0 15.0 0.00 0.00 0.00 17 1013.8
20260506184506 71 227 7.0 18.0 0.00 0.00 0.00 18 1014.0
20260506183008 71 274 9.0 21.0 0.00 0.00 0.00 16 1014.2
20260506181516 71 254 8.0 20.0 0.00 0.00 0.00 17 1014.3
20260506180021 71 226 8.0 18.0 0.00 0.00 0.00 19 1014.5
20260506174504 67 170 5.0 11.0 0.00 0.00 0.00 37 1014.6
20260506173008 67 27 1.0 6.0 0.00 0.00 0.00 37 1015.0
20260506171509 66 152 4.0 11.0 0.00 0.00 0.00 39 1015.0
20260506170017 65 85 2.0 7.0 0.00 0.00 0.00 40 1015.2
20260506164522 63 164 4.0 7.0 0.00 0.00 0.00 43 1015.2
20260506163006 60 103 4.0 11.0 0.00 0.00 0.00 50 1015.4
20260506161510 59 108 2.0 7.0 0.00 0.00 0.00 51 1015.5
20260506160026 57 79 1.0 7.0 0.00 0.00 0.00 52 1015.6
20260506154524 57 136 1.0 3.0 0.00 0.00 0.00 53 1015.9
20260506153024 55 119 3.0 5.0 0.00 0.00 0.00 56 1016.0
20260506151508 53 151 1.0 4.0 0.00 0.00 0.00 60 1016.0
20260506150012 52 124 4.0 6.0 0.00 0.00 0.00 61 1016.0
20260506144520 51 189 1.0 5.0 0.00 0.00 0.00 64 1015.9
20260506141527 47 166 2.0 5.0 0.00 0.00 0.00 70 1016.3